{"data":{"norad_id":48556,"intl_designator":"2021-041D","name":"STARLINK-2151","alt_names":[],"object_type":"PAYLOAD","status":"ACTIVE","operator":null,"country":"US","launch_date":"2021-05-15","launch_site_code":"AFETR","launch_vehicle":null,"mission":null,"orbit_class":"UNKNOWN","rcs_meters":null,"size_class":null,"mass_kg":null,"dimensions":null,"purposes":["comms"],"wikipedia_slug":null,"has_3d_model":false,"image_url":null,"decayed_at":null,"tle_current":{"epoch":"2026-05-25T03:50:28.434048Z","epoch_age_seconds":58441,"freshness":"FRESH","line1":"1 48556U 21041D   26145.16005132  .00001029  00000+0  44877-4 0  9997","line2":"2 48556  53.1588 146.7800 0001443 106.9576 253.1584 15.31735878276766","mean_motion":15.31735878,"eccentricity":0.0001443,"inclination_deg":53.1588,"raan_deg":146.78,"arg_perigee_deg":106.9576,"mean_anomaly_deg":253.1584,"bstar":4.4877e-5,"rev_number":27676,"period_min":94.010985880948,"perigee_km":469.64476934442,"apogee_km":471.62132437995,"semimajor_km":6848.7700468622,"source":"CELESTRAK","updated_at":"2026-05-25T13:38:16.724795Z"}}}